Weather History for Barking Sands, HI

Change the Weather History Date:

Saturday, February 8, 2014

  Actual Average Record
Temperature  
Mean Temperature 23 °C -  
Max Temperature 25 °C 27 °C 29 °C (1974)
Min Temperature 21 °C 16 °C 14 °C (1957)
Cooling Degree Days 8    
Growing Degree Days 24 (Base 50)    
Moisture  
Dew Point 17 °C    
Average Humidity 69    
Maximum Humidity 78    
Minimum Humidity 62    
Precipitation  
Precipitation 0.00 mm - - ()
Sea Level Pressure  
Sea Level Pressure 1014 hPa    
Wind  
Wind Speed 6 km/h (NNE)    
Max Wind Speed 27 km/h    
Max Gust Speed 35 km/h    
Visibility 16 kilometers    
Events      
Averages and records for this station are not official NWS values.
T = Trace of Precipitation, MM = Missing Value Source: NWS Daily Summary

Daily Weather History Graph

Daily Weather History Graph

Search for Another Location

Airport:

Trip Planner

Search our weather history database for the weather conditions in past years. The results will help you decide how hot, cold, wet, or windy it might be!

Date:

Astronomy

Feb. 08, 2014 Rise Set
Actual Time 7:14 AM HST 6:32 PM HST
Civil Twilight 6:51 AM HST 6:55 PM HST
Nautical Twilight 6:24 AM HST 7:22 PM HST
Astronomical Twilight 5:58 AM HST 7:48 PM HST
Moon 1:46 PM HST (2/8) 2:27 AM HST (2/8)
Length of Visible Light 12h 04m
Length of Day
11h 18m
Waxing Gibbous, 70% of the Moon is Illuminated
Feb 8
Waxing Gibbous
Feb 14
Full
Feb 22
Last Quarter
Feb 28
New
Mar 8
First Quarter

Hourly Weather History & Observations

Time (HST) Temp. Dew Point Humidity Pressure Visibility Wind Dir Wind Speed Gust Speed Precip Events Conditions
12:56 AM 21.1 °C 16.7 °C 76% 1014.0 hPa 16.1 km Calm Calm - N/A   Scattered Clouds
1:47 AM - - N/A% 1013.8 hPa 16.1 km Calm Calm - N/A   Overcast
1:56 AM - - N/A% 1014.2 hPa 16.1 km NE 5.6 km/h / 1.5 m/s - N/A   Overcast
2:56 AM - - N/A% 1014.2 hPa 16.1 km North 9.3 km/h / 2.6 m/s - N/A   Mostly Cloudy
3:07 AM - - N/A% 1013.4 hPa 16.1 km NNE 7.4 km/h / 2.1 m/s - N/A   Mostly Cloudy
3:56 AM - - N/A% 1013.5 hPa 16.1 km ENE 7.4 km/h / 2.1 m/s - N/A   Partly Cloudy
4:56 AM - - N/A% 1013.5 hPa 16.1 km NE 7.4 km/h / 2.1 m/s - N/A   Mostly Cloudy
5:56 AM - - N/A% 1013.9 hPa 16.1 km Calm Calm - N/A   Scattered Clouds
6:08 AM - - N/A% 1013.1 hPa 16.1 km ENE 5.6 km/h / 1.5 m/s - N/A   Mostly Cloudy
6:42 AM - - N/A% 1013.4 hPa 16.1 km NE 5.6 km/h / 1.5 m/s - N/A   Mostly Cloudy
6:56 AM - - N/A% 1014.2 hPa 16.1 km NNE 7.4 km/h / 2.1 m/s - N/A   Mostly Cloudy
7:56 AM - - N/A% 1014.9 hPa 16.1 km NNE 5.6 km/h / 1.5 m/s - N/A   Overcast
8:56 AM - - N/A% 1015.2 hPa 16.1 km NNE 5.6 km/h / 1.5 m/s - N/A   Unknown
9:56 AM - - N/A% 1016.2 hPa 16.1 km Calm Calm - N/A   Overcast
10:37 AM 23.0 °C 17.0 °C 69% 1016.1 hPa 16.1 km NNW 13.0 km/h / 3.6 m/s - N/A   Mostly Cloudy
10:56 AM 23.3 °C 17.2 °C 68% 1016.2 hPa 16.1 km Variable 5.6 km/h / 1.5 m/s - N/A   Mostly Cloudy
11:03 AM 24.0 °C 17.0 °C 65% 1016.1 hPa 16.1 km NNW 11.1 km/h / 3.1 m/s - N/A   Scattered Clouds
11:31 AM 23.0 °C 17.0 °C 69% 1015.8 hPa 16.1 km Calm Calm - N/A   Mostly Cloudy
11:39 AM 24.0 °C 18.0 °C 69% 1015.8 hPa 16.1 km WNW 7.4 km/h / 2.1 m/s - N/A   Overcast
11:56 AM 24.4 °C 17.8 °C 67% 1015.9 hPa 16.1 km NNW 13.0 km/h / 3.6 m/s - N/A   Overcast
12:56 PM 23.9 °C 17.2 °C 66% 1014.8 hPa 16.1 km NNW 11.1 km/h / 3.1 m/s - N/A   Overcast
1:06 PM 24.0 °C 17.0 °C 65% 1014.1 hPa 16.1 km NNW 18.5 km/h / 5.1 m/s - N/A   Overcast
1:23 PM 25.0 °C 18.0 °C 65% 1013.8 hPa 16.1 km North 20.4 km/h / 5.7 m/s - N/A   Mostly Cloudy
1:56 PM 25.0 °C 17.2 °C 62% 1013.4 hPa 16.1 km North 22.2 km/h / 6.2 m/s - N/A   Overcast
2:56 PM 23.9 °C 17.2 °C 66% 1012.6 hPa 16.1 km North 27.8 km/h / 7.7 m/s 35.2 km/h / 9.8 m/s N/A   Mostly Cloudy
3:56 PM 23.9 °C 17.2 °C 66% 1012.5 hPa 16.1 km North 25.9 km/h / 7.2 m/s - N/A   Overcast
4:56 PM 22.8 °C 17.2 °C 71% 1013.2 hPa 16.1 km NNE 20.4 km/h / 5.7 m/s - N/A   Mostly Cloudy
5:56 PM 22.8 °C 16.7 °C 68% 1013.6 hPa 16.1 km North 16.7 km/h / 4.6 m/s - N/A   Overcast
6:56 PM 21.7 °C 16.7 °C 73% 1013.6 hPa 16.1 km NNE 13.0 km/h / 3.6 m/s - N/A   Mostly Cloudy
7:56 PM 21.7 °C 17.2 °C 75% 1014.3 hPa 16.1 km NNE 7.4 km/h / 2.1 m/s - N/A   Overcast
8:56 PM 21.1 °C 17.2 °C 78% 1014.6 hPa 16.1 km NE 5.6 km/h / 1.5 m/s - N/A   Overcast
9:56 PM - - N/A% 1014.9 hPa 16.1 km Calm Calm - N/A   Overcast
10:56 PM - - N/A% 1015.2 hPa 16.1 km NNE 5.6 km/h / 1.5 m/s - N/A   Overcast
11:56 PM - - N/A% 1015.2 hPa 16.1 km NNE 5.6 km/h / 1.5 m/s - N/A   Overcast